Weather in Bezvodnaya

Russia / Republic of Adygea     44°22′33″N   39°54′49″E
temp.,
°C
wind,
m/s
gust,
m/s
humid.,
%
clouds,
%
prec.,
mm/h
press.,
hPa
HPBL,
m
25 january, tue
tue2500:000nnw1599100 2.8 1023358
03:00−1ne1198100 3.1 102472
06:00−3sse239681 0.0 102455
09:00−4sse2289100 0.0 102552
12:00+1wsw25855 0.0 1025487
15:00+2wsw138711 0.0 1024671
18:00−4ese11978 0.0 102523
21:00−7sse229526 0.0 102629
26 january, wed
wed2600:00−8sse2292100 0.0 102427
03:00−8sse219299 0.0 102322
06:00−6sse119198 0.0 102123
09:00−3sse1284100 0.0 102162
12:00+1wnw1282100 0.0 1019288
15:00+1sw1390100 0.0 1019337
18:00−2nnw119998 0.0 101930
21:00−4nw1299100 0.0 1020102
27 january, thu
thu2700:00−4nw1195100 0.1 1020264
03:00−3n1196100 0.1 1020252
06:00−3n1296100 0.1 1020167
09:00−3n129499 0.3 1020285
12:00−2nnw1186100 0.2 1020633
15:00−1wnw2381100 0.3 1020664
18:00−6sse11965 0.0 102110
21:00−8sse219737 0.0 102220
28 january, fri
fri2800:00−7sse2292100 0.0 102244
03:00−7s2286100 0.0 102244
06:00−6ssw149596 0.1 1022115
09:00−3s139218 0.1 1022129
12:00+3wsw4118097 0.0 10201359
15:00+3sw4107199 0.0 1019833
18:00−1sw368552 0.0 1020175
21:00−3ssw2588100 0.0 1020177
29 january, sat
sat2900:00−2s2487100 0.0 1020145
03:00−2sse2391100 0.0 102089
06:00−3s2291100 0.0 101952
09:00−1ssw2481100 0.0 1020128
12:00+4sw31076100 0.0 1019953
15:00+4sw51470100 0.0 1019989
18:00+1sw51476100 0.0 1021627
21:00−1sw3988100 0.0 1022341